Location: Unspecified
(0.0000°N, 0.0000°E)
Time: 15:15:41
(UTC+00:00)

Vanguard 1 Rocket - All Passes

Search period start: 19 July 2018 00:00
Search period end: 29 July 2018 00:00
Orbit: 652 x 4225 km, 34.3° (Epoch: 18 July)

Date Brightness Start Highest point End Pass type
(mag) Time Alt. Az. Time Alt. Az. Time Alt. Az.
19 Jul - 02:03:56 10° SSW 02:22:52 40° SE 02:46:11 10° E visible
19 Jul - 04:31:56 10° SW 04:57:25 86° SE 05:20:17 10° NE visible
19 Jul - 07:07:01 10° WSW 07:30:34 42° NW 07:46:56 10° NNE daylight
19 Jul - 09:57:37 10° NW 10:03:30 12° NNW 10:08:22 10° N daylight
19 Jul - 15:04:05 10° N 15:06:21 13° NNE 15:08:26 10° NE daylight
19 Jul - 17:27:15 10° WNW 17:31:29 50° SW 17:36:44 10° SE daylight
20 Jul - 00:52:41 10° SSW 01:07:05 27° SSE 01:26:32 10° E visible
20 Jul - 03:18:42 10° SW 03:41:37 66° SE 04:06:20 10° ENE visible
20 Jul - 05:49:51 10° WSW 06:15:32 61° NW 06:35:35 10° NE daylight
20 Jul - 08:32:42 10° WNW 08:48:40 22° NNW 08:59:58 10° NNE daylight
20 Jul - 16:16:16 10° NW 16:20:49 57° NE 16:25:20 10° ESE daylight
20 Jul - 18:43:45 10° SW 18:46:26 14° SSW 18:49:38 10° S visible
20 Jul - 23:42:27 10° S 23:51:28 17° SSE 00:03:25 10° ESE visible
21 Jul - 02:06:35 10° SSW 02:25:57 47° SE 02:50:24 10° ENE visible
21 Jul - 04:34:50 10° SW 05:00:00 82° NW 05:23:12 10° NE visible
21 Jul - 07:11:30 10° W 07:33:38 35° NW 07:49:35 10° NNE daylight
21 Jul - 10:05:55 10° NNW 10:07:54 10° NNW 10:09:45 10° NNW daylight
21 Jul - 15:05:44 10° NNW 15:09:54 23° NNE 15:13:26 10° E daylight
21 Jul - 17:31:07 10° W 17:34:53 28° SSW 17:39:21 10° SSE daylight
22 Jul - 00:55:23 10° SSW 01:10:36 32° SE 01:31:48 10° E visible
22 Jul - 03:21:26 10° SW 03:44:16 77° SE 04:09:34 10° ENE visible
22 Jul - 05:53:29 10° WSW 06:18:17 51° NW 06:38:15 10° NE daylight
22 Jul - 08:38:58 10° WNW 08:52:36 18° NNW 09:02:40 10° NNE daylight
22 Jul - 13:55:48 10° N 13:58:12 12° NNE 14:00:17 10° NE daylight
22 Jul - 16:19:25 10° WNW 16:24:06 74° SW 16:28:39 10° SE daylight
22 Jul - 23:45:11 10° SSW 23:55:32 20° SSE 00:09:55 10° ESE visible
23 Jul - 02:09:15 10° SW 02:28:46 57° SE 02:54:12 10° ENE visible
23 Jul - 04:37:59 10° WSW 05:02:36 70° NW 05:25:58 10° NE visible
23 Jul - 07:16:31 10° W 07:37:02 29° NNW 07:52:16 10° NNE daylight
23 Jul - 15:08:10 10° NW 15:13:22 40° NNE 15:17:30 10° ESE daylight
23 Jul - 17:35:40 10° WSW 17:38:23 16° SSW 17:41:24 10° S daylight
23 Jul - 22:38:04 10° SSE 22:40:40 11° SSE 22:43:32 10° SE night (unlit)
24 Jul - 00:58:02 10° SSW 01:13:46 39° SE 01:36:31 10° E visible
24 Jul - 03:24:19 10° SW 03:46:50 89° SE 04:12:32 10° NE visible
24 Jul - 05:57:32 10° W 06:21:16 43° NW 06:40:53 10° NNE daylight
24 Jul - 08:45:33 10° NW 08:56:54 16° NNW 09:05:39 10° N daylight
24 Jul - 13:57:04 10° NNW 14:01:59 20° NNE 14:05:41 10° ENE daylight
24 Jul - 16:22:57 10° WNW 16:27:22 38° SW 16:31:35 10° SSE daylight
24 Jul - 23:47:47 10° SSW 23:59:13 24° SE 00:15:54 10° E visible
25 Jul - 02:11:59 10° SW 02:31:25 67° SE 02:57:36 10° ENE visible
25 Jul - 04:41:24 10° WSW 05:05:20 60° NW 05:28:37 10° NE visible
25 Jul - 07:22:07 10° WNW 07:40:49 25° NNW 07:55:03 10° NNE daylight
25 Jul - 12:45:52 10° NNW 12:49:43 13° NNE 12:52:49 10° NE daylight
25 Jul - 15:11:00 10° NW 15:16:44 75° NE 15:21:06 10° ESE daylight
25 Jul - 22:39:21 10° S 22:44:52 13° SSE 22:51:44 10° SE night (unlit)
26 Jul - 01:00:42 10° SSW 01:16:40 47° SE 01:40:41 10° ENE visible
26 Jul - 03:27:22 10° WSW 03:49:27 79° NW 04:15:18 10° NE visible
26 Jul - 06:02:02 10° W 06:24:33 36° NNW 06:43:32 10° NNE daylight
26 Jul - 08:51:56 10° NW 09:01:33 14° NNW 09:09:09 10° NNE daylight
26 Jul - 11:33:52 10° N 11:36:30 11° N 11:38:47 10° NNE daylight
26 Jul - 13:59:12 10° NW 14:05:39 33° NNE 14:10:00 10° E daylight
26 Jul - 16:27:00 10° W 16:30:38 21° SW 16:34:06 10° SSE daylight
26 Jul - 23:50:20 10° SSW 00:02:32 30° SE 00:21:14 10° E visible
27 Jul - 02:14:49 10° SW 02:34:01 79° SE 03:00:41 10° ENE visible
27 Jul - 04:45:09 10° WSW 05:08:16 50° NW 05:31:11 10° NE visible
27 Jul - 07:28:09 10° WNW 07:45:01 21° NNW 07:58:05 10° NNE daylight
27 Jul - 10:18:11 10° NNW 10:22:06 11° N 10:25:27 10° NNE daylight
27 Jul - 12:47:13 10° NNW 12:53:42 21° NNE 12:58:11 10° ENE daylight
27 Jul - 15:14:11 10° WNW 15:19:58 61° SW 15:24:19 10° SE daylight
27 Jul - 22:41:20 10° S 22:48:42 16° SE 22:58:46 10° ESE visible
28 Jul - 01:03:25 10° SW 01:19:22 56° SE 01:44:23 10° ENE visible
28 Jul - 03:30:39 10° WSW 03:52:11 68° NW 04:17:55 10° NE visible
28 Jul - 06:07:02 10° W 06:28:13 31° NNW 06:46:16 10° NNE daylight
28 Jul - 08:57:28 10° NW 09:06:24 14° N 09:13:29 10° NNE daylight
28 Jul - 11:34:27 10° NNW 11:40:48 16° NNE 11:45:27 10° NE daylight
28 Jul - 14:01:44 10° NW 14:09:08 56° NNE 14:13:50 10° ESE daylight
28 Jul - 16:32:06 10° WSW 16:33:55 12° SW 16:35:43 10° S daylight
